EW5212 Weather Reports


time (UTC)temp
F
wind
direction
speed
knots
gust
knots
rain 1hr
in
rain 24hr
in
rain mn
in
humidity
%
barometer
mb
20260904045516 78 0.0 0.0 0.00 0.00 0.00 96 1015.2
20260904044517 78 0.0 0.0 0.00 0.00 0.00 96 1015.1
20260904043516 78 0.0 0.0 0.00 0.00 0.00 96 1015.1
20260904042516 78 0.0 0.0 0.00 0.00 0.00 97 1015.2
20260904041517 78 0.0 0.0 0.00 0.00 0.00 97 1015.1
20260904040516 78 0.0 0.0 0.00 0.00 0.00 98 1015.2
20260904035516 78 0.0 0.0 0.00 0.00 0.00 98 1015.2
20260904034516 78 0.0 0.0 0.00 0.00 0.00 99 1015.3
20260904033516 78 0.0 0.0 0.00 0.00 0.00 99 1015.3
20260904032516 78 0.0 0.0 0.00 0.00 0.00 99 1015.5
20260904031517 78 0.0 0.0 0.00 0.00 0.00 99 1015.4
20260904030516 78 0.0 0.0 0.00 0.00 0.00 98 1015.3
20260904025536 78 0.0 0.0 0.00 0.00 0.00 98 1015.3
20260904024537 78 0.0 0.0 0.00 0.00 0.00 98 1015.3
20260904023516 78 0.0 0.0 0.00 0.00 0.00 98 1015.3
20260904022516 79 0.0 0.0 0.00 0.00 0.00 98 1015.3
20260904021516 79 0.0 0.0 0.00 0.00 0.00 98 1015.1
20260904020516 79 0.0 0.0 0.00 0.00 0.00 98 1015.2
20260904015517 79 0.0 0.0 0.00 0.00 0.00 98 1015.3
20260904014516 79 0.0 0.0 0.00 0.00 0.00 97 1015.5
20260904013516 80 0.0 0.0 0.00 0.00 0.00 97 1015.7
20260904012516 80 0.0 0.0 0.00 0.00 0.00 97 1015.6
20260904011516 80 0.0 0.0 0.00 0.00 0.00 97 1015.8
20260904010516 80 0.0 0.0 0.00 0.00 0.00 96 1015.7
20260904005536 81 0.0 0.0 0.00 0.00 0.00 96 1015.9
20260904004516 81 0.0 0.0 0.00 0.00 0.00 96 1015.9
20260904003516 81 0.0 0.0 0.00 0.00 0.00 96 1015.9
20260904002516 81 0.0 0.0 0.00 0.00 0.00 95 1015.8
20260904001516 82 0.0 0.0 0.00 0.00 0.00 95 1015.6
20260904000516 82 0.0 0.0 0.00 0.00 0.00 94 1015.5
20260903235516 83 0.0 0.0 0.00 0.00 0.00 94 1015.2
20260903234516 83 0.0 0.0 0.00 0.00 0.00 93 1015.0
20260903233516 84 0.0 0.0 0.00 0.00 0.00 93 1015.0
20260903232536 84 0.0 0.0 0.00 0.00 0.00 92 1015.1
20260903231516 85 0.0 0.0 0.00 0.00 0.00 91 1015.0
20260903230515 85 0.0 0.0 0.00 0.00 0.00 91 1015.1
20260903225516 86 0.0 0.0 0.00 0.00 0.00 89 1014.9
20260903224515 86 0.0 0.0 0.00 0.00 0.00 88 1014.9
20260903223535 86 0.0 0.0 0.00 0.00 0.00 88 1014.8
20260903222516 86 0.0 0.0 0.00 0.00 0.00 87 1014.9
20260903221516 87 0.0 0.0 0.00 0.00 0.00 84 1014.8
20260903220556 88 0.0 0.0 0.00 0.00 0.00 82 1015.0
20260903215515 88 0.0 0.0 0.00 0.00 0.00 81 1015.1
20260903214516 89 0.0 0.0 0.00 0.00 0.00 80 1015.0
20260903213516 91 0.0 0.9 0.00 0.00 0.00 77 1015.1
20260903212536 93 0.0 0.9 0.00 0.00 0.00 75 1015.0
20260903211535 94 0.0 0.0 0.00 0.00 0.00 71 1014.9
20260903210515 94 0.0 0.9 0.00 0.00 0.00 69 1015.1
20260903205516 94 0.0 0.9 0.00 0.00 0.00 73 1015.2
20260903204515 94 0.0 0.9 0.00 0.00 0.00 71 1015.2
20260903203516 94 0.0 0.9 0.00 0.00 0.00 72 1015.4
20260903202516 95 0.0 0.9 0.00 0.00 0.00 72 1015.5
20260903201535 95 0.0 0.0 0.00 0.00 0.00 72 1015.6
20260903200516 95 0.0 0.0 0.00 0.00 0.00 66 1015.7
20260903195516 96 0.0 0.9 0.00 0.00 0.00 69 1015.9
20260903194516 97 0.0 0.9 0.00 0.00 0.00 65 1015.9
20260903193516 98 270 0.9 1.7 0.00 0.00 0.00 67 1016.1
20260903192515 97 0.0 0.9 0.00 0.00 0.00 69 1016.1
20260903191515 97 0.0 0.9 0.00 0.00 0.00 69 1016.3
20260903190536 96 0.0 0.9 0.00 0.00 0.00 69 1016.4
20260903185515 96 270 0.9 1.7 0.00 0.00 0.00 70 1016.7
20260903184515 96 0.0 0.9 0.00 0.00 0.00 71 1016.8
20260903183515 96 45 0.9 2.6 0.00 0.00 0.00 69 1016.9
20260903182535 96 270 0.9 2.6 0.00 0.00 0.00 68 1017.0
20260903181516 96 68 0.9 2.6 0.00 0.00 0.00 68 1017.1
20260903180515 94 45 0.9 1.7 0.00 0.00 0.00 71 1017.3
20260903175515 94 0.0 0.9 0.00 0.00 0.00 72 1017.5
20260903174515 94 0.0 2.6 0.00 0.00 0.00 73 1017.6
20260903173515 94 0 0.9 1.7 0.00 0.00 0.00 73 1017.5
20260903172515 94 0.0 0.9 0.00 0.00 0.00 74 1017.6
20260903171515 93 45 0.9 0.9 0.00 0.00 0.00 74 1017.8
20260903170515 93 0.0 0.9 0.00 0.00 0.00 73 1017.8
20260903165515 93 135 0.9 2.6 0.00 0.00 0.00 74 1017.8
20260903164515 92 0.0 0.9 0.00 0.00 0.00 75 1018.0
20260903163515 92 45 0.9 0.9 0.00 0.00 0.00 76 1018.0
20260903162536 91 0.0 0.9 0.00 0.00 0.00 76 1018.2
20260903161515 91 0.0 0.9 0.00 0.00 0.00 76 1018.2
20260903160515 91 0.0 0.9 0.00 0.00 0.00 78 1018.2
20260903155515 90 0.0 0.9 0.00 0.00 0.00 79 1018.5
20260903154515 89 68 0.9 1.7 0.00 0.00 0.00 79 1018.4
20260903153515 89 68 0.9 3.5 0.00 0.00 0.00 80 1018.5
20260903152515 88 45 0.9 1.7 0.00 0.00 0.00 81 1018.6
20260903151555 88 0.0 1.7 0.00 0.00 0.00 81 1018.5
20260903150535 87 45 0.9 1.7 0.00 0.00 0.00 81 1018.4
20260903145515 87 0.0 0.9 0.00 0.00 0.00 82 1018.3
20260903144515 87 0.0 0.9 0.00 0.00 0.00 82 1018.4
20260903143515 86 0.0 1.7 0.00 0.00 0.00 83 1018.2
20260903142516 86 45 0.9 1.7 0.00 0.00 0.00 82 1018.2
20260903141515 86 0.0 1.7 0.00 0.00 0.00 82 1018.1
20260903140515 86 45 0.9 0.9 0.00 0.00 0.00 80 1018.1
20260903135515 87 0.0 0.9 0.00 0.00 0.00 81 1017.7
20260903134515 85 0.0 0.9 0.00 0.00 0.00 82 1017.7
20260903133515 84 270 0.9 2.6 0.00 0.00 0.00 82 1017.8
20260903132515 83 0.0 1.7 0.00 0.00 0.00 85 1017.9
20260903131516 80 0.0 0.9 0.00 0.00 0.00 90 1018.1
20260903130515 78 0.0 0.9 0.00 0.00 0.00 99 1018.1
20260903125516 77 0.0 0.0 0.00 0.00 0.00 100 1018.1
20260903124515 75 0.0 1.7 0.00 0.00 0.00 100 1018.4
20260903123515 74 0.0 0.0 0.00 0.00 0.00 100 1018.4
20260903122517 73 0.0 0.0 0.00 0.00 0.00 100 1018.3
20260903121517 72 0.0 0.0 0.00 0.00 0.00 100 1018.2
20260903120517 72 0.0 0.0 0.00 0.00 0.00 100 1018.3
20260903115517 72 0.0 0.0 0.00 0.00 0.00 100 1018.3
20260903114537 71 0.0 0.0 0.00 0.00 0.00 100 1018.1
20260903113537 71 0.0 0.0 0.00 0.00 0.00 100 1018.0
20260903112517 71 0.0 0.0 0.00 0.00 0.00 100 1017.9
20260903111557 71 0.0 0.0 0.00 0.00 0.00 100 1017.9
20260903110517 71 0.0 0.0 0.00 0.00 0.00 100 1017.8
20260903105517 71 0.0 0.0 0.00 0.00 0.00 100 1017.8
20260903104517 71 0.0 0.0 0.00 0.00 0.00 100 1017.7
20260903103517 71 0.0 0.0 0.00 0.00 0.00 100 1017.7
20260903102517 72 0.0 0.0 0.00 0.00 0.00 100 1017.6
20260903101557 72 0.0 0.0 0.00 0.00 0.00 100 1017.6
20260903100517 71 0.0 0.0 0.00 0.00 0.00 100 1017.7
20260903095521 72 0.0 0.0 0.00 0.00 0.00 100 1017.8
20260903094537 72 0.0 0.0 0.00 0.00 0.00 100 1017.7
20260903093537 72 0.0 0.0 0.00 0.00 0.00 100 1017.6
20260903092517 72 0.0 0.0 0.00 0.00 0.00 100 1017.6
20260903091517 72 0.0 0.0 0.00 0.00 0.00 100 1017.6
20260903090517 72 0.0 0.0 0.00 0.00 0.00 100 1017.4
20260903085517 72 0.0 0.0 0.00 0.00 0.00 100 1017.3
20260903084517 72 0.0 0.0 0.00 0.00 0.00 100 1017.1
20260903083517 73 0.0 0.0 0.00 0.00 0.00 100 1017.2
20260903082517 73 0.0 0.0 0.00 0.00 0.00 100 1017.1
20260903081537 73 0.0 0.0 0.00 0.00 0.00 100 1017.1
20260903080517 73 0.0 0.0 0.00 0.00 0.00 100 1017.3
20260903075516 73 0.0 0.0 0.00 0.00 0.00 100 1017.5
20260903074556 73 0.0 0.0 0.00 0.00 0.00 100 1017.5
20260903073517 73 0.0 0.0 0.00 0.00 0.00 100 1017.6
20260903072517 73 0.0 0.0 0.00 0.00 0.00 100 1017.6
20260903071517 74 0.0 0.0 0.00 0.00 0.00 100 1017.5
20260903070517 74 0.0 0.0 0.00 0.00 0.00 100 1017.5
20260903065517 74 0.0 0.0 0.00 0.00 0.00 100 1017.7
20260903064536 74 0.0 0.0 0.00 0.00 0.00 100 1017.8
20260903063517 74 0.0 0.0 0.00 0.00 0.00 100 1017.8
20260903062537 74 0.0 0.0 0.00 0.00 0.00 100 1017.8
20260903061516 74 0.0 0.9 0.00 0.00 0.00 100 1017.8
20260903060537 75 0.0 0.0 0.00 0.00 0.00 100 1017.7
20260903055517 75 0.0 0.0 0.00 0.00 0.00 100 1017.8
20260903054516 75 0.0 0.0 0.00 0.00 0.00 100 1017.9
20260903053517 75 0.0 0.0 0.00 0.00 0.00 100 1018.0
20260903052520 75 0.0 0.0 0.00 0.00 0.00 99 1018.2
20260903051537 75 0.0 0.0 0.00 0.00 0.00 99 1018.3
20260903050516 75 0.0 0.9 0.00 0.00 0.00 99 1018.3